Back to catalog

INTELSAT 4A-F4

AliveCommunicationsGEO
NORAD 10024·PAYLOAD· XX

Launched May 26, 1977 from Cape Canaveral Space Force Station

Loading…

TLE

FreshSource: Space-Track

Epoch: Sep 14, 2026, 12:31 UTC

1 10024U 77041A   26257.52211353 -.00000055  00000-0  00000-0 0  9991
2 10024   8.7312 310.5936 0014151 275.2969 144.7455  0.99446283 47870

Track INTELSAT 4A-F4 in real time with AllMySat

Download on the App Store